TimeEST,TemperatureF,Dew PointF,Humidity,Sea Level PressureIn,VisibilityMPH,Wind Direction,Wind SpeedMPH,Gust SpeedMPH,PrecipitationIn,Events,Conditions,WindDirDegrees,DateUTC
12:15 AM,35.6,26.6,70,30.29,10.0,South,6.9,-,N/A,,Clear,180,2013-02-19 05:15:00
12:35 AM,33.8,26.6,75,30.29,10.0,South,5.8,-,N/A,,Clear,190,2013-02-19 05:35:00
12:55 AM,33.8,26.6,75,30.29,10.0,SSW,5.8,-,N/A,,Clear,200,2013-02-19 05:55:00
1:15 AM,33.8,26.6,75,30.29,10.0,South,5.8,-,N/A,,Clear,190,2013-02-19 06:15:00
1:35 AM,33.8,26.6,75,30.27,10.0,South,4.6,-,N/A,,Clear,180,2013-02-19 06:35:00
1:55 AM,33.8,26.6,75,30.26,10.0,South,5.8,-,N/A,,Clear,190,2013-02-19 06:55:00
2:15 AM,35.6,26.6,70,30.25,10.0,South,5.8,-,N/A,,Clear,180,2013-02-19 07:15:00
2:35 AM,35.6,26.6,70,30.24,10.0,South,5.8,-,N/A,,Clear,170,2013-02-19 07:35:00
2:55 AM,35.6,26.6,70,30.24,10.0,South,6.9,-,N/A,,Clear,180,2013-02-19 07:55:00
3:15 AM,35.6,26.6,70,30.24,10.0,South,4.6,-,N/A,,Clear,180,2013-02-19 08:15:00
3:35 AM,35.6,26.6,70,30.23,10.0,Calm,Calm,-,N/A,,Clear,0,2013-02-19 08:35:00
3:55 AM,33.8,26.6,75,30.22,10.0,South,3.5,-,N/A,,Clear,170,2013-02-19 08:55:00
4:15 AM,33.8,26.6,75,30.21,10.0,South,3.5,-,N/A,,Clear,170,2013-02-19 09:15:00
4:35 AM,33.8,26.6,75,30.21,10.0,Calm,Calm,-,N/A,,Clear,0,2013-02-19 09:35:00
4:55 AM,33.8,28.4,81,30.20,10.0,SSE,3.5,-,N/A,,Clear,160,2013-02-19 09:55:00
5:15 AM,33.8,28.4,81,30.19,10.0,South,3.5,-,N/A,,Clear,170,2013-02-19 10:15:00
5:35 AM,33.8,30.2,87,30.18,10.0,Calm,Calm,-,N/A,,Clear,0,2013-02-19 10:35:00
5:55 AM,33.8,30.2,87,30.17,10.0,South,3.5,-,N/A,,Clear,170,2013-02-19 10:55:00
6:15 AM,33.8,30.2,87,30.17,10.0,SSE,3.5,-,N/A,,Scattered Clouds,150,2013-02-19 11:15:00
6:55 AM,37.4,33.8,87,30.15,10.0,South,6.9,-,N/A,,Scattered Clouds,170,2013-02-19 11:55:00
7:35 AM,41.0,35.6,81,30.14,10.0,SSE,5.8,-,N/A,,Clear,160,2013-02-19 12:35:00
7:55 AM,44.6,37.4,76,30.14,10.0,South,6.9,-,N/A,,Clear,170,2013-02-19 12:55:00
8:15 AM,44.6,37.4,76,30.13,10.0,South,9.2,-,N/A,,Clear,170,2013-02-19 13:15:00
8:35 AM,48.2,39.2,71,30.13,10.0,South,8.1,-,N/A,,Clear,170,2013-02-19 13:35:00
8:55 AM,51.8,41.0,67,30.12,10.0,South,11.5,16.1,N/A,,Clear,180,2013-02-19 13:55:00
9:15 AM,53.6,42.8,67,30.11,10.0,South,11.5,-,N/A,,Clear,190,2013-02-19 14:15:00
9:35 AM,53.6,42.8,67,30.11,10.0,South,15.0,20.7,N/A,,Clear,180,2013-02-19 14:35:00
9:55 AM,53.6,42.8,67,30.09,10.0,South,11.5,17.3,N/A,,Clear,180,2013-02-19 14:55:00
10:15 AM,55.4,42.8,63,30.08,10.0,South,9.2,-,N/A,,Scattered Clouds,180,2013-02-19 15:15:00
10:35 AM,55.4,44.6,67,30.08,10.0,South,9.2,-,N/A,,Scattered Clouds,170,2013-02-19 15:35:00
10:55 AM,57.2,44.6,63,30.07,10.0,South,11.5,17.3,N/A,,Mostly Cloudy,190,2013-02-19 15:55:00
11:15 AM,59.0,44.6,59,30.06,10.0,South,12.7,18.4,N/A,,Mostly Cloudy,180,2013-02-19 16:15:00
11:35 AM,59.0,46.4,63,30.04,10.0,South,10.4,-,N/A,,Scattered Clouds,190,2013-02-19 16:35:00
11:55 AM,59.0,46.4,63,30.02,10.0,SSW,15.0,21.9,N/A,,Scattered Clouds,200,2013-02-19 16:55:00
12:15 PM,59.0,46.4,63,30.00,10.0,South,11.5,21.9,N/A,,Scattered Clouds,190,2013-02-19 17:15:00
12:35 PM,59.0,46.4,63,29.99,10.0,South,13.8,20.7,N/A,,Mostly Cloudy,190,2013-02-19 17:35:00
12:55 PM,59.0,46.4,63,29.96,10.0,South,13.8,23.0,N/A,,Light Drizzle,170,2013-02-19 17:55:00
1:15 PM,60.8,46.4,59,29.94,10.0,South,13.8,20.7,N/A,,Mostly Cloudy,180,2013-02-19 18:15:00
1:35 PM,60.8,48.2,63,29.95,7.0,SSW,13.8,21.9,N/A,,Scattered Clouds,200,2013-02-19 18:35:00
1:55 PM,57.2,50.0,77,29.94,10.0,SSW,10.4,18.4,0.01,Rain,Rain,210,2013-02-19 18:55:00
2:15 PM,55.4,51.8,88,29.93,10.0,SSW,11.5,17.3,0.03,Rain,Light Rain,210,2013-02-19 19:15:00
2:35 PM,55.4,53.6,94,29.90,10.0,SSW,10.4,-,0.03,,Mostly Cloudy,200,2013-02-19 19:35:00
2:55 PM,57.2,53.6,88,29.88,10.0,South,13.8,19.6,N/A,,Mostly Cloudy,180,2013-02-19 19:55:00
3:15 PM,57.2,53.6,88,29.86,10.0,South,13.8,-,N/A,,Light Drizzle,180,2013-02-19 20:15:00
3:35 PM,57.2,53.6,88,29.86,10.0,South,12.7,-,N/A,,Mostly Cloudy,190,2013-02-19 20:35:00
3:55 PM,57.2,53.6,88,29.85,10.0,South,17.3,24.2,N/A,,Mostly Cloudy,190,2013-02-19 20:55:00
4:15 PM,57.2,51.8,82,29.85,10.0,SSW,12.7,21.9,N/A,,Overcast,200,2013-02-19 21:15:00
4:35 PM,57.2,51.8,82,29.84,10.0,SSW,13.8,-,N/A,,Overcast,200,2013-02-19 21:35:00
4:55 PM,57.2,51.8,82,29.83,10.0,SSW,13.8,19.6,N/A,,Overcast,200,2013-02-19 21:55:00
5:15 PM,57.2,50.0,77,29.82,10.0,SSW,12.7,20.7,N/A,,Overcast,200,2013-02-19 22:15:00
5:35 PM,57.2,48.2,72,29.81,10.0,SSW,15.0,28.8,N/A,,Overcast,200,2013-02-19 22:35:00
5:55 PM,57.2,48.2,72,29.82,10.0,SSW,13.8,20.7,N/A,,Overcast,210,2013-02-19 22:55:00
6:15 PM,57.2,48.2,72,29.83,10.0,SSW,19.6,25.3,N/A,,Overcast,210,2013-02-19 23:15:00
7:35 PM,53.6,51.8,94,29.85,10.0,WSW,11.5,-,0.06,Rain,Light Rain,240,2013-02-20 00:35:00
7:55 PM,53.6,51.8,94,29.86,10.0,WSW,15.0,25.3,N/A,Rain,Light Rain,250,2013-02-20 00:55:00
8:15 PM,51.8,48.2,88,29.86,10.0,WSW,12.7,17.3,N/A,,Mostly Cloudy,250,2013-02-20 01:15:00
8:55 PM,51.8,46.4,82,29.87,10.0,WSW,9.2,16.1,N/A,,Scattered Clouds,250,2013-02-20 01:55:00
9:15 PM,51.8,46.4,82,29.88,10.0,WSW,10.4,-,N/A,,Scattered Clouds,250,2013-02-20 02:15:00
9:35 PM,50.0,46.4,87,29.89,10.0,WSW,11.5,-,N/A,,Scattered Clouds,250,2013-02-20 02:35:00
9:55 PM,50.0,44.6,82,29.89,10.0,WSW,9.2,-,N/A,,Scattered Clouds,250,2013-02-20 02:55:00
10:15 PM,48.2,44.6,87,29.89,10.0,West,9.2,-,N/A,,Clear,260,2013-02-20 03:15:00
10:35 PM,48.2,44.6,87,29.89,10.0,WSW,6.9,-,N/A,,Clear,250,2013-02-20 03:35:00
10:55 PM,48.2,42.8,82,29.89,10.0,WSW,10.4,-,N/A,,Clear,250,2013-02-20 03:55:00
11:15 PM,46.4,42.8,87,29.89,10.0,West,10.4,-,N/A,,Clear,260,2013-02-20 04:15:00
11:35 PM,46.4,42.8,87,29.90,10.0,West,9.2,-,N/A,,Clear,260,2013-02-20 04:35:00
11:55 PM,46.4,41.0,81,29.89,10.0,West,8.1,-,N/A,,Clear,260,2013-02-20 04:55:00